TimeEST,TemperatureF,Dew PointF,Humidity,Sea Level PressureIn,VisibilityMPH,Wind Direction,Wind SpeedMPH,Gust SpeedMPH,PrecipitationIn,Events,Conditions,WindDirDegrees,DateUTC
12:56 AM,30.9,15.1,52,29.88,10.0,NW,11.5,-,N/A,,Mostly Cloudy,320,2013-11-24 05:56:00
1:56 AM,28.9,10.0,45,29.89,10.0,WNW,12.7,26.5,N/A,,Partly Cloudy,300,2013-11-24 06:56:00
2:56 AM,28.0,6.1,39,29.91,10.0,WNW,17.3,31.1,N/A,,Partly Cloudy,300,2013-11-24 07:56:00
3:56 AM,26.1,3.0,37,29.91,10.0,WNW,17.3,32.2,N/A,,Clear,300,2013-11-24 08:56:00
4:56 AM,25.0,3.0,39,29.92,10.0,NW,18.4,36.8,N/A,,Clear,310,2013-11-24 09:56:00
5:56 AM,24.1,5.0,44,29.93,10.0,WNW,20.7,26.5,N/A,,Clear,300,2013-11-24 10:56:00
6:56 AM,24.1,6.1,46,29.93,10.0,WNW,15.0,24.2,N/A,,Scattered Clouds,290,2013-11-24 11:56:00
7:56 AM,24.1,3.9,42,29.96,10.0,NW,25.3,42.6,N/A,,Scattered Clouds,320,2013-11-24 12:56:00
8:56 AM,24.1,5.0,44,29.99,10.0,WNW,19.6,34.5,N/A,,Scattered Clouds,300,2013-11-24 13:56:00
9:56 AM,25.0,3.9,41,29.99,10.0,NW,23.0,42.6,N/A,,Scattered Clouds,310,2013-11-24 14:56:00
10:56 AM,26.1,1.9,35,29.99,10.0,NNW,26.5,34.5,N/A,,Scattered Clouds,330,2013-11-24 15:56:00
11:56 AM,27.0,1.9,34,30.00,10.0,NW,20.7,35.7,N/A,,Partly Cloudy,310,2013-11-24 16:56:00
12:56 PM,27.0,-2.0,29,30.01,10.0,NW,27.6,43.7,N/A,,Clear,310,2013-11-24 17:56:00
1:56 PM,28.0,-0.9,29,30.01,10.0,NNW,28.8,43.7,N/A,,Clear,330,2013-11-24 18:56:00
2:56 PM,28.0,-0.9,29,30.06,10.0,NW,24.2,39.1,N/A,,Clear,320,2013-11-24 19:56:00
3:56 PM,27.0,-0.0,31,30.11,10.0,NW,21.9,33.4,N/A,,Clear,310,2013-11-24 20:56:00
4:56 PM,26.1,-0.0,32,30.14,10.0,WNW,20.7,35.7,N/A,,Clear,300,2013-11-24 21:56:00
5:56 PM,26.1,-0.9,31,30.16,10.0,NW,28.8,40.3,N/A,,Clear,320,2013-11-24 22:56:00
6:56 PM,25.0,-0.0,34,30.19,10.0,WNW,19.6,32.2,N/A,,Clear,300,2013-11-24 23:56:00
7:56 PM,25.0,1.0,36,30.21,10.0,WNW,18.4,29.9,N/A,,Clear,300,2013-11-25 00:56:00
8:56 PM,25.0,3.0,39,30.22,10.0,NW,23.0,35.7,N/A,,Clear,310,2013-11-25 01:56:00
9:56 PM,24.1,6.1,46,30.24,10.0,NW,19.6,31.1,N/A,,Clear,310,2013-11-25 02:56:00
10:56 PM,24.1,7.0,48,30.26,10.0,WNW,17.3,34.5,N/A,,Clear,300,2013-11-25 03:56:00
11:56 PM,23.0,7.0,50,30.27,10.0,WNW,12.7,25.3,N/A,,Clear,300,2013-11-25 04:56:00